Wednesday, August 27, 2014
10:56 UTC
  |  Log In   |  Register Free
Airport Search:

Henderson Field Airport
(KACZ)

Henderson Field Airport Diagram
No Airport Diagram Available

FAA data valid effective July 24, 2014 until September 18, 2014 (unless otherwise noted).

 
 
 
 
 
 
 
 
 
 
 
 
 
 

Current Aviation Weather for Henderson Field Airport (KACZ)

The most recent METAR observation for KDPL was updated at: 1835 UTC
METAR Summary (Translated METAR)
KDPL
281835Z AUTO 34003KT 10SM BKN049 BKN055 BKN075 31/20 A2979 RMK AO2 T03130204
KCTZ
(18.9 nm SW from KDPL)
281835Z AUTO 21003KT 10SM BKN060 BKN080 32/23 A2978 RMK AO2 T03200226
TAF Summary (Translated TAF)
KGSB
(20.4 nm NE from KDPL)
2709/2810 03006KT 3200 BR OVC002 QNH2997INS BECMG 2711/2712 01012KT 9999 NSW SCT035 QNH2997INS BECMG 2723/2724 VRB05KT 9999 SKC QNH2999INS TX33/2720Z TN16/2710Z AMD 270945
  Airport Weather Conditions for KACZ

Current weather conditions are
not available for ACZ


The nearest NOAA weather station
is at DPL, (17 nm NE from ACZ)
  
 Current Weather at DPL
63° F
Fair
North winds at 0.0 mph
DPL NOAA Radar

Pressure: 30.02 in
Humidity: 94%
Wind: Calm
Dew Point: 60.8°F
Visibility: 10.00 mi


Airport Weather Forecast for KACZ

Translated METAR and TAF for KDPL
Translated METAR for KDPL (1050 UTC 27 August 2014)
found at http://aviationweather.gov/adds/metars/
 
METAR text: KDPL 271032Z AUTO 33004KT 2SM BR OVC002 17/17 A3003 RMK AO2
Conditions at: KDPL (KENANSVILLE/DUPL, NC, US) observed 1032 UTC 27 August 2014
Temperature: 17.0°C (63°F)
Dewpoint: 17.0°C (63°F) [RH = 100%]
Pressure (altimeter): 30.03 inches Hg (1017.0 mb)
Winds: from the NNW (330 degrees) at 5 MPH (4 knots; 2.1 m/s)
Visibility: 2.00 miles (3.22 km)
Ceiling: 200 feet AGL
Clouds: overcast cloud deck at 200 feet AGL
Weather: BR  (mist)
Translated TAF for KDPL

There is no translated TAF available for this airport

Find All Airport Services Find A Hotel Find A Rental Car Find A Golf Course Find A Restaurant $100 Hamburger



FBO's on the Field
FBO Company Facility Photos Services Transportation Aviation Fuel Prices: Prices include tax
Catering Weather Repair Courtesy Rental Type 100LL JetA JetA+ MOGAS 8087
 
Henderson Field

This FBO has not yet been rated
FS:Phillips66
Last Updated: Aug-18
Login to update fuel prices
SS:
Contact Henderson FieldMore FBO Information
 
Add another FBO Facility Photos Catering Weather Repair Courtesy Rental Type 100LL JetA JetA+ MOGAS 8087
Services Transportation Aviation Fuel Prices: Prices include tax


GlobalAir.com Airport Resource Center model-print
model-print
model-print
model-print